Weather History for Blacksburg, VA

Change the Weather History Date:

Sunday, August 25, 2013

  Actual Average Record
Temperature  
Mean Temperature 64 °F 69 °F  
Max Temperature 76 °F 81 °F 93 °F (2007)
Min Temperature 51 °F 58 °F 44 °F (1997)
Degree Days  
Heating Degree Days 1 0  
Month to date heating degree days 21 0  
Since 1 June heating degree days 30 44  
Since 1 July heating degree days 23 6  
Cooling Degree Days 0 5  
Month to date cooling degree days 108 142  
Year to date cooling degree days 467 486  
Since 1 June cooling degree days 436 457  
Growing Degree Days 14 (Base 50)    
Moisture  
Dew Point 57 °F    
Average Humidity 75    
Maximum Humidity 100    
Minimum Humidity 50    
Precipitation  
Precipitation 0.00 in 0.11 in 0.85 in (1958)
Month to date precipitation 1.68 2.95  
Year to date precipitation 39.27 28.55  
Snow  
Snow 0.00 in - - ()
Month to date snowfall 0.0  
Since 1 June snowfall T  
Since 1 July snowfall 0.0  
Snow Depth 0.00 in    
Sea Level Pressure  
Sea Level Pressure 30.43 in    
Wind  
Wind Speed 2 mph (ESE)    
Max Wind Speed 8 mph    
Max Gust Speed -    
Visibility 9 miles    
Events      
T = Trace of Precipitation, MM = Missing Value Source: NWS Daily Summary

Daily Weather History Graph

Daily Weather History Graph

Search for Another Location

Airport:

Trip Planner

Search our weather history database for the weather conditions in past years. The results will help you decide how hot, cold, wet, or windy it might be!

Date:

Astronomy

Aug. 25, 2013 Rise Set
Actual Time 6:46 AM EDT 7:59 PM EDT
Civil Twilight 6:19 AM EDT 8:26 PM EDT
Nautical Twilight 5:47 AM EDT 8:59 PM EDT
Astronomical Twilight 5:13 AM EDT 9:32 PM EDT
Moon 10:38 PM EDT (8/25) 11:39 AM EDT (8/25)
Length of Visible Light 14h 07m
Length of Day
13h 13m
Waning Gibbous, 76% of the Moon is Illuminated
Aug 25
Waning Gibbous
Aug 28
Last Quarter
Sep 5
New
Sep 12
First Quarter
Sep 19
Full

Hourly Weather History & Observations

Time (EDT) Temp. Dew Point Humidity Pressure Visibility Wind Dir Wind Speed Gust Speed Precip Events Conditions
12:15 AM 57.2 °F 57.2 °F 100% 30.41 in 10.0 mi Calm Calm - N/A   Clear
12:35 AM 57.2 °F 57.2 °F 100% 30.41 in 10.0 mi Calm Calm - N/A   Clear
12:55 AM 57.2 °F 57.2 °F 100% 30.41 in 10.0 mi Calm Calm - N/A   Clear
1:15 AM 55.4 °F 55.4 °F 100% 30.41 in 10.0 mi Calm Calm - N/A   Clear
1:35 AM 55.4 °F 55.4 °F 100% 30.41 in 10.0 mi Calm Calm - N/A   Clear
1:55 AM 55.4 °F 55.4 °F 100% 30.41 in 10.0 mi Calm Calm - N/A   Clear
2:15 AM 55.4 °F 55.4 °F 100% 30.41 in 10.0 mi Calm Calm - N/A   Clear
2:35 AM 55.4 °F 55.4 °F 100% 30.41 in 10.0 mi Calm Calm - N/A   Clear
2:55 AM 53.6 °F 53.6 °F 100% 30.40 in 10.0 mi Calm Calm - N/A   Clear
3:15 AM 55.4 °F 55.4 °F 100% 30.41 in 10.0 mi Calm Calm - N/A   Clear
3:35 AM 53.6 °F 53.6 °F 100% 30.40 in 7.0 mi Calm Calm - N/A   Clear
3:55 AM 53.6 °F 53.6 °F 100% 30.40 in 7.0 mi Calm Calm - N/A   Clear
4:15 AM 53.6 °F 53.6 °F 100% 30.41 in 7.0 mi Calm Calm - N/A   Clear
4:35 AM 53.6 °F 53.6 °F 100% 30.41 in 7.0 mi Calm Calm - N/A   Clear
4:55 AM 53.6 °F 53.6 °F 100% 30.42 in 10.0 mi Calm Calm - N/A   Clear
5:15 AM 53.6 °F 53.6 °F 100% 30.42 in 10.0 mi Calm Calm - N/A   Clear
5:35 AM 53.6 °F 53.6 °F 100% 30.43 in 7.0 mi Calm Calm - N/A   Clear
5:55 AM 53.6 °F 53.6 °F 100% 30.43 in 7.0 mi Calm Calm - N/A   Clear
6:15 AM 53.6 °F 53.6 °F 100% 30.44 in 5.0 mi Calm Calm - N/A   Clear
6:35 AM 53.6 °F 53.6 °F 100% 30.45 in 7.0 mi Calm Calm - N/A   Clear
6:55 AM 53.6 °F 53.6 °F 100% 30.46 in 5.0 mi Calm Calm - N/A   Clear
7:15 AM 53.6 °F 53.6 °F 100% 30.47 in 5.0 mi Calm Calm - N/A   Clear
7:35 AM 53.6 °F 53.6 °F 100% 30.48 in 5.0 mi Calm Calm - N/A   Clear
7:55 AM 55.4 °F 55.4 °F 100% 30.48 in 10.0 mi Calm Calm - N/A   Clear
8:15 AM 57.2 °F 57.2 °F 100% 30.49 in 10.0 mi Calm Calm - N/A   Clear
8:35 AM 59.0 °F 59.0 °F 100% 30.48 in 10.0 mi Calm Calm - N/A   Clear
8:55 AM 62.6 °F 60.8 °F 94% 30.49 in 10.0 mi Calm Calm - N/A   Clear
9:15 AM 64.4 °F 60.8 °F 88% 30.49 in 10.0 mi Calm Calm - N/A   Clear
9:35 AM 66.2 °F 62.6 °F 88% 30.49 in 10.0 mi Calm Calm - N/A   Clear
9:55 AM 66.2 °F 62.6 °F 88% 30.49 in 10.0 mi Calm Calm - N/A   Clear
10:15 AM 68.0 °F 62.6 °F 83% 30.48 in 10.0 mi Calm Calm - N/A   Clear
10:35 AM 69.8 °F 62.6 °F 78% 30.48 in 10.0 mi Calm Calm - N/A   Scattered Clouds
10:55 AM 69.8 °F 62.6 °F 78% 30.48 in 10.0 mi South 3.5 mph - N/A   Scattered Clouds
11:15 AM 69.8 °F 60.8 °F 73% 30.48 in 10.0 mi Calm Calm - N/A   Mostly Cloudy
11:35 AM 71.6 °F 62.6 °F 73% 30.47 in 10.0 mi Calm Calm - N/A   Mostly Cloudy
11:55 AM 71.6 °F 60.8 °F 69% 30.47 in 10.0 mi Calm Calm - N/A   Scattered Clouds
12:15 PM 73.4 °F 60.8 °F 65% 30.47 in 10.0 mi Calm Calm - N/A   Clear
12:35 PM 73.4 °F 57.2 °F 57% 30.46 in 10.0 mi NNW 3.5 mph - N/A   Mostly Cloudy
12:55 PM 73.4 °F 55.4 °F 53% 30.46 in 10.0 mi Calm Calm - N/A   Scattered Clouds
1:15 PM 75.2 °F 55.4 °F 50% 30.45 in 10.0 mi SE 5.8 mph - N/A   Clear
1:35 PM 75.2 °F 55.4 °F 50% 30.45 in 10.0 mi SE 6.9 mph - N/A   Clear
1:55 PM 75.2 °F 55.4 °F 50% 30.44 in 10.0 mi ESE 3.5 mph - N/A   Clear
2:15 PM 75.2 °F 55.4 °F 50% 30.44 in 10.0 mi ESE 6.9 mph - N/A   Scattered Clouds
2:35 PM 73.4 °F 57.2 °F 57% 30.44 in 10.0 mi NE 3.5 mph - N/A   Mostly Cloudy
2:55 PM 75.2 °F 57.2 °F 53% 30.42 in 10.0 mi ESE 3.5 mph - N/A   Mostly Cloudy
3:15 PM 75.2 °F 57.2 °F 53% 30.41 in 10.0 mi SSE 4.6 mph - N/A   Scattered Clouds
3:35 PM 73.4 °F 57.2 °F 57% 30.41 in 10.0 mi ESE 9.2 mph - N/A   Scattered Clouds
3:55 PM 73.4 °F 57.2 °F 57% 30.40 in 5.0 mi ESE 5.8 mph - N/A   Haze
4:15 PM 75.2 °F 55.4 °F 50% 30.41 in 10.0 mi SE 5.8 mph - N/A   Clear
4:35 PM 73.4 °F 57.2 °F 57% 30.41 in 7.0 mi SE 4.6 mph - N/A   Scattered Clouds
4:55 PM 73.4 °F 57.2 °F 57% 30.41 in 7.0 mi ENE 6.9 mph - N/A   Mostly Cloudy
5:15 PM 75.2 °F 57.2 °F 53% 30.40 in 10.0 mi NE 4.6 mph - N/A   Scattered Clouds
5:35 PM 75.2 °F 57.2 °F 53% 30.40 in 10.0 mi ESE 6.9 mph - N/A   Clear
5:55 PM 73.4 °F 57.2 °F 57% 30.40 in 10.0 mi SE 5.8 mph - N/A   Clear
6:15 PM 73.4 °F 57.2 °F 57% 30.39 in 10.0 mi ESE 6.9 mph - N/A   Clear
6:35 PM 73.4 °F 59.0 °F 61% 30.39 in 10.0 mi ESE 5.8 mph - N/A   Clear
6:55 PM 71.6 °F 59.0 °F 64% 30.38 in 10.0 mi ESE 8.1 mph - N/A   Clear
7:15 PM 71.6 °F 57.2 °F 60% 30.38 in 10.0 mi ESE 4.6 mph - N/A   Clear
7:35 PM 69.8 °F 57.2 °F 64% 30.38 in 2.5 mi ESE 4.6 mph - N/A   Haze
7:55 PM 69.8 °F 57.2 °F 64% 30.38 in 3.0 mi Calm Calm - N/A   Haze
8:15 PM 64.4 °F 59.0 °F 83% 30.39 in 7.0 mi Calm Calm - N/A   Clear
8:35 PM 64.4 °F 57.2 °F 77% 30.40 in 10.0 mi Calm Calm - N/A   Clear
8:55 PM 62.6 °F 59.0 °F 88% 30.40 in 10.0 mi Calm Calm - N/A   Clear
9:15 PM 62.6 °F 57.2 °F 82% 30.40 in 10.0 mi ESE 4.6 mph - N/A   Clear
9:35 PM 62.6 °F 57.2 °F 82% 30.40 in 10.0 mi ESE 3.5 mph - N/A   Clear
9:55 PM 60.8 °F 57.2 °F 88% 30.41 in 10.0 mi Calm Calm - N/A   Clear
10:15 PM 60.8 °F 59.0 °F 94% 30.41 in 10.0 mi WSW 4.6 mph - N/A   Clear
10:35 PM 59.0 °F 57.2 °F 94% 30.40 in 10.0 mi Calm Calm - N/A   Clear
10:55 PM 57.2 °F 57.2 °F 100% 30.41 in 10.0 mi Calm Calm - N/A   Clear
11:15 PM 59.0 °F 59.0 °F 100% 30.42 in 10.0 mi Calm Calm - N/A   Clear
11:35 PM 57.2 °F 57.2 °F 100% 30.42 in 10.0 mi Calm Calm - N/A   Clear
11:55 PM 57.2 °F 57.2 °F 100% 30.42 in 10.0 mi Calm Calm - N/A   Clear